Flag for Germany Weather past 2 weeks in Buchholz in der Nordheide, Lower Saxony, Germany

Now
45 °F

Scattered clouds.


Feels Like: 41 °F
Forecast: 37 / 44 °F
Wind: 6 mph from West

Location: Hamburg-Fuhlsbuettel

Current Time: Mar 1, 2015 at 6:06:30 PM

Latest Report: Mar 1, 2015 at 5:20 PM


Visibility: N/A

Pressure: 29.47 "Hg

Humidity: 76%

Dew point: 37 °F

Location of Buchholz in der NordheideLocation

Historic Weather in Buchholz in der Nordheide — Graph

°F

Buchholz in der Nordheide temperature yesterday

Maximum temperature yesterday: 45 °F (at 12:50 PM)
Minimum temperature yesterday: 32 °F (at 12:20 AM)
Average temperature yesterday: 38 °F

Past Weeks' High & Low Weather Summary

 TemperatureHumidityPressure
High48 °F (Feb 14, 4:20 PM)100% (Feb 15, 12:50 AM)30.69 "Hg (Feb 15, 12:50 AM)
Low28 °F (Feb 17, 3:50 AM)57% (Feb 25, 3:20 PM)29.24 "Hg (Feb 21, 9:50 AM)
Average38 °F85%29.92 "Hg
* Reported Feb 14 4:20 PM — Mar 1 4:20 PM, Buchholz in der Nordheide, Weather by CustomWeather, © 2015

Note: Actual official high and low records may vary slightly from our data, if they occured in-between our weather recording intervals... More about our weather records

Advertising

Buchholz in der Nordheide weather history for previous 24 hours

 ConditionsComfort  
Time TempWeatherWind HumidityBarometerVisibility
4:20 PM
Sun, Mar 1
45 °FScattered showers. Scattered clouds.14 mph76%29.47 "HgN/A
3:50 PM45 °FScattered clouds.7 mph81%29.47 "HgN/A
3:20 PM45 °FSprinkles. Scattered clouds.10 mph81%29.47 "HgN/A
2:50 PM45 °FSprinkles. Scattered clouds.14 mph76%29.47 "HgN/A
2:20 PM46 °FSprinkles. Scattered clouds.17 mph71%29.45 "HgN/A
1:50 PM46 °FSprinkles. Passing clouds.9 mph87%29.45 "HgN/A
1:20 PM46 °FSprinkles. Scattered clouds.15 mph87%29.45 "HgN/A
12:50 PM46 °FPartly sunny.16 mph87%29.45 "HgN/A
12:20 PM45 °FLight rain. Broken clouds.16 mph93%29.45 "HgN/A
11:50 AM45 °FPartly sunny.18 mph93%29.45 "HgN/A
11:20 AM43 °FPartly sunny.18 mph93%29.45 "HgN/A
10:50 AM41 °FPartly sunny.20 mph100%29.45 "HgN/A
10:20 AM41 °FBroken clouds.22 mph93%29.45 "HgN/A
9:50 AM41 °FBroken clouds.17 mph93%29.45 "HgN/A
9:20 AM39 °FBroken clouds.16 mph93%29.45 "HgN/A
8:50 AM39 °FDrizzle. Broken clouds.15 mph93%29.45 "Hg4 mi
8:20 AM37 °FDrizzle. Broken clouds.15 mph100%29.47 "Hg4 mi
7:50 AM37 °FLight rain. Partly sunny.18 mph93%29.47 "Hg4 mi
7:20 AM37 °FLight rain. Broken clouds.18 mph93%29.47 "HgN/A
6:50 AM37 °FLight rain. Partly cloudy.17 mph93%29.50 "HgN/A
6:20 AM37 °FRain. Passing clouds.15 mph87%29.50 "HgN/A
5:50 AM39 °FLight rain. Passing clouds.17 mph81%29.53 "HgN/A
5:20 AM39 °FLight rain. Passing clouds.17 mph75%29.53 "HgN/A
4:50 AM39 °FLight rain. Passing clouds.16 mph70%29.56 "HgN/A
4:20 AM39 °FLight rain. Passing clouds.16 mph70%29.56 "HgN/A
3:50 AM41 °FPassing clouds.15 mph61%29.59 "HgN/A
3:20 AM39 °FPassing clouds.16 mph65%29.62 "HgN/A
2:50 AM39 °FPassing clouds.16 mph65%29.62 "HgN/A
2:20 AM39 °FPassing clouds.15 mph65%29.65 "HgN/A
1:50 AM39 °FClear.14 mph65%29.68 "Hg10 mi
1:20 AM39 °FClear.15 mph65%29.71 "Hg10 mi
12:50 AM37 °FClear.14 mph70%29.74 "Hg10 mi
12:20 AM37 °FClear.15 mph70%29.74 "Hg10 mi
11:50 PM
Sat, Feb 28
37 °FClear.14 mph70%29.77 "Hg10 mi
11:20 PM37 °FClear.16 mph75%29.80 "Hg10 mi
10:50 PM37 °FClear.15 mph75%29.80 "Hg10 mi
10:20 PM39 °FClear.13 mph65%29.83 "Hg10 mi
9:50 PM39 °FClear.16 mph70%29.86 "Hg10 mi
9:20 PM37 °FClear.16 mph70%29.86 "Hg10 mi
8:50 PM39 °FClear.13 mph65%29.89 "Hg10 mi
8:20 PM39 °FClear.9 mph65%29.89 "Hg10 mi
7:50 PM37 °FClear.9 mph70%29.89 "Hg10 mi
7:20 PM39 °FClear.10 mph65%29.92 "Hg10 mi
6:50 PM39 °FClear.10 mph65%29.92 "Hg10 mi
6:20 PM41 °FClear.12 mph66%29.92 "Hg10 mi
Weather by CustomWeather, © 2015

See weather overviewHow to use our weather pages